TimeMDT,TemperatureF,Dew PointF,Humidity,Sea Level PressureIn,VisibilityMPH,Wind Direction,Wind SpeedMPH,Gust SpeedMPH,PrecipitationIn,Events,Conditions,WindDirDegrees,DateUTC
12:51 AM,55.0,36.0,49,29.91,10.0,NE,5.8,-,N/A,,Clear,40,2012-09-06 06:51:00
1:51 AM,50.0,35.1,57,29.92,10.0,Calm,Calm,-,N/A,,Clear,0,2012-09-06 07:51:00
2:51 AM,46.0,30.9,56,29.92,10.0,Calm,Calm,-,N/A,,Clear,0,2012-09-06 08:51:00
3:51 AM,45.0,30.9,58,29.94,10.0,Calm,Calm,-,N/A,,Clear,0,2012-09-06 09:51:00
4:51 AM,46.0,34.0,63,29.93,10.0,ENE,3.5,-,N/A,,Clear,60,2012-09-06 10:51:00
5:51 AM,43.0,33.1,68,29.95,10.0,Calm,Calm,-,N/A,,Clear,0,2012-09-06 11:51:00
6:51 AM,39.9,32.0,73,29.97,10.0,Calm,Calm,-,N/A,,Clear,0,2012-09-06 12:51:00
7:51 AM,41.0,30.9,67,29.99,10.0,Calm,Calm,-,N/A,,Clear,0,2012-09-06 13:51:00
8:51 AM,46.0,34.0,63,30.01,10.0,Calm,Calm,-,N/A,,Clear,0,2012-09-06 14:51:00
9:51 AM,57.9,37.0,46,30.00,10.0,SSW,3.5,-,N/A,,Clear,210,2012-09-06 15:51:00
10:51 AM,63.0,37.0,38,29.99,10.0,Variable,3.5,-,N/A,,Clear,0,2012-09-06 16:51:00
11:51 AM,69.1,33.1,26,29.98,10.0,NE,4.6,-,N/A,,Clear,50,2012-09-06 17:51:00
12:51 PM,72.0,30.0,21,29.98,10.0,West,10.4,16.1,N/A,,Clear,260,2012-09-06 18:51:00
1:51 PM,72.0,28.9,20,29.99,10.0,West,10.4,-,N/A,,Clear,280,2012-09-06 19:51:00
2:51 PM,73.0,30.9,21,29.99,10.0,West,9.2,-,N/A,,Clear,270,2012-09-06 20:51:00
3:51 PM,73.0,28.9,20,30.00,10.0,Variable,4.6,-,N/A,,Clear,0,2012-09-06 21:51:00
4:51 PM,73.0,28.9,20,30.00,10.0,NNW,8.1,-,N/A,,Mostly Cloudy,330,2012-09-06 22:51:00
5:51 PM,73.9,28.0,18,30.00,10.0,Calm,Calm,-,N/A,,Partly Cloudy,0,2012-09-06 23:51:00
6:51 PM,73.0,28.9,20,30.02,10.0,Calm,Calm,-,N/A,,Clear,0,2012-09-07 00:51:00
7:51 PM,69.1,28.9,22,30.04,10.0,Calm,Calm,-,N/A,,Overcast,0,2012-09-07 01:51:00
8:51 PM,61.0,33.1,35,30.06,10.0,Calm,Calm,-,N/A,,Scattered Clouds,0,2012-09-07 02:51:00
9:51 PM,57.9,33.1,39,30.06,10.0,Calm,Calm,-,N/A,,Mostly Cloudy,0,2012-09-07 03:51:00
10:51 PM,54.0,34.0,47,30.07,10.0,Calm,Calm,-,N/A,,Clear,0,2012-09-07 04:51:00
11:51 PM,53.1,35.1,50,30.08,10.0,Calm,Calm,-,N/A,,Clear,0,2012-09-07 05:51:00